Phillips Army Air Field
KAPG : now visible

Airfield :











YOU CAN JOIN US ON...

 
LOGIN :

Register | Disclaimer

   EN    FR    IT 

 









Legend :    VFR   Marginal VFR   IFR   Intensive IFR   Very Intensive IFR
Visi :
Ceiling :
>= 8 km
>= 3000ft
5 to 8 km
1000 to 3000 ft
1500m to 5 km
500 to 1000 ft
800 to 1500m
200 to 500 ft
< 800m
< 200 ft
Symbols :   Thunderstorms  Fog  Heavy snow  Heavy precipitations  Wind > 20 kt






- Airport Elevation : 57 ft


KAPG - Phillips Army Air Field

CURRENT METAR :
  • 121658Z 32006KT 10SM BKN070 16/04 A3022 RMK AO2A SLP237 T01560037 $

EXPIRED METARs :
  • 121558Z 34010G15KT 10SM BKN070 14/03 A3024 RMK AO2A SLP244 T01420031 $
  • 121458Z 36007KT 7SM SCT180 14/03 A3024 RMK AO2A SLP243 T01350034 57006 $

TAF N/A
KZDC FIR / North America



MET'MAP, your aeronautical weather chart ! - Copyright ORBIFLY December 2007 - Disclaimer

ORBIFLY MET'MAP TEAM :

Programming & Development : Alexandra Zaïnal
Concept & original design : Baudouin d'Aumeries
Assistance for programming : Marc-Olivier Méhu
Technical & hardware support : Manuel Goepfert

Contact : metmap@orbifly.com




SOURCES & CREDITS :

   NOAA       Earth
Advisory